Change the Weather History Date:

Tuesday, February 12, 2013

  Actual Average (KCAK) Record (KCAK)
Temperature  
Mean Temperature 30 °F 28 °F  
Max Temperature 35 °F 36 °F 65 °F (1984)
Min Temperature 24 °F 21 °F -12 °F (1917)
Degree Days  
Heating Degree Days 36 37  
Month to date heating degree days 451  
Since 1 July heating degree days 3987  
Cooling Degree Days 0 0  
Month to date cooling degree days 0  
Year to date cooling degree days 0  
Moisture  
Dew Point 22 °F    
Average Humidity 71    
Maximum Humidity 98    
Minimum Humidity 60    
Precipitation  
Precipitation 0.00 in 0.08 in 0.75 in (2008)
Month to date precipitation 0.98  
Year to date precipitation 3.59  
Snow  
Snow 0.00 in 0.30 in - ()
Month to date snowfall 4.4  
Since 1 July snowfall 30.4  
Snow Depth -    
Sea Level Pressure  
Sea Level Pressure 29.97 in    
Wind  
Wind Speed 12 mph (West)    
Max Wind Speed 20 mph    
Max Gust Speed 28 mph    
Visibility 10 miles    
Events      
T = Trace of Precipitation, MM = Missing Value Source: NWS Daily Summary

Daily Weather History Graph

Daily Weather History Graph

Search for Another Location

Airport or City:

Trip Planner

Search our weather history database for the weather conditions in past years. The results will help you decide how hot, cold, wet, or windy it might be!

Date:

Astronomy

Feb. 12, 2013 Rise Set
Actual Time 7:23 AM EST 5:55 PM EST
Civil Twilight 6:54 AM EST 6:24 PM EST
Nautical Twilight 6:22 AM EST 6:56 PM EST
Astronomical Twilight 5:50 AM EST 7:28 PM EST
Moon 8:17 AM EST (2/12) 8:57 PM EST (2/12)
Length of Visible Light 11h 29m
Length of Day
10h 32m
Waxing Crescent, 7% of the Moon is Illuminated
Feb 12
Waxing Crescent
Feb 17
First Quarter
Feb 25
Full
Mar 4
Last Quarter
Mar 11
New

Hourly Weather History & Observations

Time (EST) Temp. Windchill Dew Point Humidity Pressure Visibility Wind Dir Wind Speed Gust Speed Precip Events Conditions
12:15 AM 32.4 °F 21.3 °F 21.4 °F 64% 29.90 in 10.0 mi West 17.3 mph 26.5 mph N/A   Overcast
12:35 AM 32.2 °F 20.4 °F 21.2 °F 64% 29.90 in 10.0 mi WSW 19.6 mph 27.6 mph N/A   Overcast
12:56 AM 32.0 °F 20.5 °F 21.4 °F 65% 29.91 in 10.0 mi WSW 18.4 mph 26.5 mph N/A   Overcast
1:15 AM 32.0 °F 22.1 °F 21.7 °F 66% 29.91 in 10.0 mi WSW 13.8 mph 18.4 mph N/A   Overcast
1:35 AM 32.0 °F 21.2 °F 21.9 °F 66% 29.92 in 10.0 mi WSW 16.1 mph 21.9 mph N/A   Overcast
1:55 AM 32.0 °F 20.5 °F 21.2 °F 64% 29.92 in 10.0 mi West 18.4 mph 25.3 mph N/A   Overcast
2:15 AM 32.0 °F 21.6 °F 21.2 °F 64% 29.93 in 10.0 mi WSW 15.0 mph 21.9 mph N/A   Overcast
2:35 AM 32.0 °F 23.6 °F 21.2 °F 64% 29.94 in 10.0 mi WSW 10.4 mph - N/A   Overcast
2:55 AM 31.8 °F 20.2 °F 21.2 °F 65% 29.94 in 10.0 mi WSW 18.4 mph 21.9 mph N/A   Overcast
3:15 AM 31.8 °F 22.3 °F 21.9 °F 67% 29.94 in 10.0 mi West 12.7 mph - N/A   Overcast
3:35 AM 31.6 °F 20.4 °F 22.5 °F 69% 29.94 in 10.0 mi West 17.3 mph 20.7 mph N/A   Overcast
3:56 AM 31.5 °F 21.8 °F 21.9 °F 68% 29.95 in 10.0 mi WSW 12.7 mph 19.6 mph N/A   Overcast
4:15 AM 31.1 °F 21.4 °F 21.0 °F 66% 29.95 in 10.0 mi West 12.7 mph 20.7 mph N/A   Overcast
4:36 AM 31.1 °F 23.1 °F 20.8 °F 66% 29.95 in 10.0 mi West 9.2 mph - N/A   Overcast
4:55 AM 31.1 °F 21.9 °F 20.5 °F 65% 29.96 in 10.0 mi West 11.5 mph 19.6 mph N/A   Overcast
5:15 AM 30.9 °F 19.8 °F 20.8 °F 66% 29.96 in 10.0 mi WSW 16.1 mph 20.7 mph N/A   Overcast
5:35 AM 30.9 °F 22.8 °F 21.0 °F 67% 29.97 in 10.0 mi WSW 9.2 mph 18.4 mph N/A   Overcast
5:55 AM 31.1 °F 22.4 °F 20.8 °F 66% 29.98 in 10.0 mi WSW 10.4 mph 21.9 mph N/A   Overcast
6:35 AM 30.9 °F 20.7 °F 21.7 °F 69% 29.98 in 10.0 mi West 13.8 mph 23.0 mph N/A   Overcast
6:56 AM 30.7 °F 20.0 °F 22.1 °F 70% 29.99 in 10.0 mi West 15.0 mph 18.4 mph N/A   Overcast
7:15 AM 30.6 °F 19.4 °F 21.6 °F 69% 30.00 in 10.0 mi West 16.1 mph 24.2 mph N/A   Overcast
7:35 AM 30.2 °F 20.8 °F 21.2 °F 69% 30.01 in 10.0 mi West 11.5 mph - N/A   Overcast
7:56 AM 30.2 °F 21.3 °F 21.0 °F 69% 30.02 in 10.0 mi West 10.4 mph - N/A   Overcast
8:16 AM 30.2 °F 20.2 °F 21.4 °F 70% 30.03 in 10.0 mi West 12.7 mph 17.3 mph N/A   Overcast
8:35 AM 30.2 °F 21.3 °F 21.2 °F 69% 30.03 in 10.0 mi West 10.4 mph 16.1 mph N/A   Overcast
8:56 AM 30.2 °F 19.8 °F 20.8 °F 68% 30.04 in 10.0 mi West 13.8 mph 19.6 mph N/A   Overcast
9:15 AM 30.2 °F 21.3 °F 21.2 °F 69% 30.04 in 10.0 mi West 10.4 mph - N/A   Overcast
9:35 AM 30.2 °F 21.3 °F 21.9 °F 71% 30.04 in 10.0 mi West 10.4 mph - N/A   Overcast
9:56 AM 30.2 °F 20.8 °F 22.1 °F 72% 30.05 in 10.0 mi West 11.5 mph - N/A   Overcast
10:15 AM 30.6 °F 21.8 °F 22.3 °F 71% 30.04 in 10.0 mi West 10.4 mph - N/A   Overcast
10:35 AM 30.7 °F 21.4 °F 22.3 °F 71% 30.05 in 10.0 mi West 11.5 mph 18.4 mph N/A   Overcast
10:55 AM 30.7 °F 20.4 °F 22.1 °F 70% 30.05 in 10.0 mi West 13.8 mph 17.3 mph N/A   Overcast
11:15 AM 30.9 °F 21.7 °F 21.7 °F 69% 30.05 in 10.0 mi West 11.5 mph 18.4 mph N/A   Overcast
11:35 AM 31.1 °F 23.1 °F 22.1 °F 69% 30.04 in 10.0 mi West 9.2 mph - N/A   Overcast
11:55 AM 31.5 °F 22.3 °F 22.1 °F 68% 30.03 in 10.0 mi WSW 11.5 mph - N/A   Overcast
12:15 PM 31.8 °F 22.8 °F 21.7 °F 66% 30.02 in 10.0 mi WSW 11.5 mph - N/A   Overcast
12:36 PM 32.0 °F 25.6 °F 22.1 °F 67% 30.00 in 10.0 mi West 6.9 mph - N/A   Overcast
12:55 PM 32.0 °F 22.5 °F 22.1 °F 67% 30.02 in 10.0 mi West 12.7 mph 16.1 mph N/A   Overcast
1:16 PM 32.0 °F 24.2 °F 22.6 °F 68% 30.01 in 10.0 mi WSW 9.2 mph - N/A   Overcast
1:35 PM 32.0 °F 25.6 °F 23.0 °F 69% 29.99 in 10.0 mi SW 6.9 mph - N/A   Overcast
1:56 PM 32.0 °F 23.0 °F 23.2 °F 70% 29.97 in 10.0 mi WSW 11.5 mph - N/A   Overcast
2:16 PM 32.0 °F 23.6 °F 22.5 °F 68% 29.95 in 10.0 mi West 10.4 mph - N/A   Overcast
2:35 PM 32.7 °F 27.3 °F 22.3 °F 65% 29.92 in 10.0 mi WNW 5.8 mph - N/A   Overcast
2:56 PM 33.3 °F 25.7 °F 23.0 °F 66% 29.94 in 10.0 mi WSW 9.2 mph - N/A   Overcast
3:15 PM 34.0 °F 28.0 °F 22.8 °F 64% 29.95 in 10.0 mi WSW 6.9 mph - N/A   Overcast
3:35 PM 33.6 °F 26.8 °F 22.5 °F 64% 29.96 in 10.0 mi West 8.1 mph - N/A   Overcast
3:56 PM 34.7 °F 26.9 °F 23.0 °F 62% 29.97 in 10.0 mi WSW 10.4 mph - N/A   Mostly Cloudy
4:15 PM 34.9 °F 28.3 °F 22.5 °F 61% 29.98 in 10.0 mi WSW 8.1 mph - N/A   Scattered Clouds
4:36 PM 35.4 °F 29.0 °F 22.8 °F 60% 29.95 in 10.0 mi West 8.1 mph - N/A   Scattered Clouds
4:55 PM 35.8 °F 30.1 °F 23.4 °F 61% 29.96 in 10.0 mi WSW 6.9 mph - N/A   Scattered Clouds
5:15 PM 35.6 °F 29.2 °F 23.0 °F 60% 29.96 in 10.0 mi West 8.1 mph - N/A   Clear
5:35 PM 34.9 °F 29.0 °F 22.8 °F 61% 29.97 in 10.0 mi WSW 6.9 mph - N/A   Clear
5:56 PM 33.8 °F 30.8 °F 23.0 °F 65% 29.96 in 10.0 mi WSW 3.5 mph - N/A   Clear
6:15 PM 32.0 °F - 23.0 °F 69% 29.96 in 10.0 mi Calm Calm - N/A   Clear
6:35 PM 31.6 °F - 22.8 °F 70% 29.96 in 10.0 mi Calm Calm - N/A   Clear
6:55 PM 30.0 °F - 23.0 °F 75% 29.96 in 10.0 mi Calm Calm - N/A   Clear
7:15 PM 28.8 °F - 23.2 °F 80% 29.95 in 10.0 mi Calm Calm - N/A   Clear
7:35 PM 28.6 °F 24.8 °F 23.0 °F 80% 29.94 in 10.0 mi NNW 3.5 mph - N/A   Clear
7:55 PM 30.2 °F - 22.6 °F 73% 29.94 in 10.0 mi Calm Calm - N/A   Clear
8:15 PM 28.2 °F - 22.3 °F 78% 29.94 in 10.0 mi Calm Calm - N/A   Clear
8:35 PM 28.4 °F - 23.2 °F 81% 29.93 in 10.0 mi Calm Calm - N/A   Clear
8:55 PM 27.1 °F - 23.7 °F 87% 29.93 in 10.0 mi Calm Calm - N/A   Clear
9:16 PM 25.7 °F 21.5 °F 22.8 °F 89% 29.92 in 10.0 mi East 3.5 mph - N/A   Clear
9:35 PM 26.2 °F - 22.3 °F 85% 29.92 in 10.0 mi Calm Calm - N/A   Clear
9:56 PM 26.6 °F 22.6 °F 23.0 °F 86% 29.91 in 10.0 mi ENE 3.5 mph - N/A   Clear
10:15 PM 25.9 °F 21.7 °F 23.7 °F 92% 29.91 in 10.0 mi ENE 3.5 mph - N/A   Clear
10:36 PM 25.5 °F 21.3 °F 22.8 °F 89% 29.91 in 10.0 mi ENE 3.5 mph - N/A   Clear
10:55 PM 25.7 °F - 23.0 °F 89% 29.90 in 10.0 mi Calm Calm - N/A   Clear
11:15 PM 25.3 °F - 23.4 °F 92% 29.90 in 10.0 mi Calm Calm - N/A   Clear
11:35 PM 24.6 °F - 23.0 °F 94% 29.90 in 10.0 mi Calm Calm - N/A   Clear
11:55 PM 24.3 °F 19.9 °F 23.7 °F 98% 29.91 in 7.0 mi North 3.5 mph - N/A   Clear